Location: Songkhla
(7.2000°N, 100.6000°E)
Time: 01:22:56
(UTC+07:00)

ISS - All Passes

Search period start: 30 November 2021 00:00
Search period end: 10 December 2021 00:00
Orbit: 417 x 423 km, 51.6° (Epoch: 29 November)

Date Brightness Start Highest point End Pass type
(mag) Time Alt. Az. Time Alt. Az. Time Alt. Az.
30 Nov - 11:09:55 10° SE 11:11:04 11° SE 11:12:13 10° ESE daylight
30 Nov - 12:44:55 10° WSW 12:47:40 23° NW 12:50:25 10° N daylight
30 Nov - 22:41:19 10° N 22:44:18 30° NE 22:47:18 10° ESE night (unlit)
01 Dec - 11:57:14 10° SW 12:00:31 53° NW 12:03:48 10° NNE daylight
01 Dec - 21:55:13 10° NNE 21:57:08 14° NE 21:59:02 10° E night (unlit)
01 Dec - 23:31:19 10° WNW 23:33:46 19° SW 23:36:13 10° S night (unlit)
02 Dec - 11:10:04 10° SSW 11:13:23 60° SE 11:16:42 10° NE daylight
02 Dec - 22:43:27 10° NW 22:46:39 41° SW 22:49:50 10° SSE night (unlit)
03 Dec - 10:23:25 10° S 10:26:15 25° SE 10:29:05 10° ENE daylight
03 Dec - 12:02:04 10° WNW 12:02:56 11° NW 12:03:47 10° NW daylight
03 Dec - 21:56:09 10° NNW 21:59:30 77° NE 22:02:51 10° SE night (unlit)
04 Dec - 09:37:46 10° SSE 09:39:07 12° SE 09:40:26 10° E daylight
04 Dec - 11:13:01 10° WSW 11:15:43 22° NW 11:18:24 10° N daylight
04 Dec - 21:09:18 10° NNW 21:12:20 31° NE 21:15:21 10° ESE night (unlit)
05 Dec - 10:25:15 10° SW 10:28:31 50° NW 10:31:47 10° NNE daylight
05 Dec - 20:23:06 10° NNE 20:25:07 15° NE 20:27:07 10° E night (unlit)
05 Dec - 21:59:22 10° W 22:01:45 18° SW 22:04:08 10° S night (unlit)
06 Dec - 09:38:01 10° SSW 09:41:20 63° SE 09:44:40 10° NE daylight
06 Dec - 21:11:24 10° NW 21:14:35 39° SW 21:17:45 10° SSE night (unlit)
07 Dec - 08:51:18 10° S 08:54:10 26° SE 08:57:02 10° ENE daylight
07 Dec - 10:30:20 10° WNW 10:30:51 10° NW 10:31:22 10° NW daylight
07 Dec - 20:24:02 10° NNW 20:27:24 81° NE 20:30:46 10° SE night (unlit)
08 Dec - 08:05:31 10° SSE 08:06:59 12° SE 08:08:27 10° E daylight
08 Dec - 09:40:57 10° WSW 09:43:35 21° NW 09:46:13 10° N daylight
08 Dec - 19:37:07 10° NNW 19:40:11 32° NE 19:43:15 10° ESE night (unlit)
09 Dec - 08:53:06 10° SW 08:56:21 47° NW 08:59:36 10° NNE daylight
09 Dec - 18:50:50 10° NNE 18:52:56 15° NE 18:55:01 10° E visible
09 Dec - 20:27:14 10° W 20:29:33 17° SW 20:31:52 10° SSW visible
